Simultaneous Nadir Overpasses (SNOs) Predictions

Prediction of SNOs between NOAA-19 and TERRA Satellite Orbit:

Table of predicted SNOs for the next 14.0 days since TLE Epoch: 6/7/2014
Index Date (NOAA-19) Time (NOAA-19) Lat,Lon (NOAA-19) SZA (NOAA-19 ) Date (TERRA) Time (TERRA) Lat,Lon (TERRA) SZA (TERRA ) Distance(km) Time Diff (sec)
1 06/07/2014 23:45:14 70.50,-174.79 47.60 06/07/2014 23:45:14 70.54,-174.79 47.63 3.71 0
2 06/08/2014 00:36:01 -70.08, -6.83 132.83 06/08/2014 00:34:49 -70.14, -7.72 132.78 34.67 72
3 06/10/2014 04:29:06 70.55, 114.20 47.45 06/10/2014 04:29:31 70.55, 114.17 47.46 1.24 25
4 06/10/2014 05:19:59 -70.42, -78.32 132.68 06/10/2014 05:19:01 -70.44, -78.37 132.67 2.59 58
5 06/12/2014 09:12:58 70.60, 43.18 47.35 06/12/2014 09:13:47 70.61, 43.19 47.36 1.59 49
6 06/12/2014 10:03:52 -70.51,-149.40 132.75 06/12/2014 10:03:17 -70.50,-149.34 132.75 2.27 35
7 06/14/2014 13:56:51 70.71, -27.94 47.33 06/14/2014 13:58:03 70.67, -27.80 47.30 6.73 72
8 06/14/2014 14:47:44 -70.54, 139.60 132.83 06/14/2014 14:47:33 -70.56, 139.67 132.82 3.18 11
9 06/16/2014 19:31:36 -70.58, 68.60 132.88 06/16/2014 19:31:50 -70.55, 68.59 132.91 3.19 14
10 06/16/2014 20:22:33 70.05,-123.33 46.60 06/16/2014 20:21:22 70.16,-124.34 46.69 39.75 71
11 06/19/2014 00:15:28 -70.62, -2.40 132.90 06/19/2014 00:16:05 -70.64, -2.35 132.88 3.43 37
12 06/19/2014 01:06:32 70.48, 165.04 46.97 06/19/2014 01:05:33 70.47, 165.04 46.95 1.40 59
